Home > Weather > Clovis > Past weeks

Flag for U.S.A. Weather for the Past 2 Weeks in Clovis, New Mexico, U.S.A.

Now
38 °F

Sunny.


Feels Like: 34 °F
Forecast: 34 / 69 °F
Wind: 6 mph from Southwest

Location: Cannon Air Force Base / Clovis

Current Time: Feb 13, 2016 at 8:54:55 AM

Latest Report: Feb 13, 2016 at 7:58 AM


Visibility: 10 mi

Pressure: 30.26 "Hg (25.77 "Hg at 1300m altitude)

Humidity: 83%

Dew point: 33 °F

Location of ClovisLocation

Historic Weather in Clovis — Graph

°F

Clovis Temperature Yesterday

Maximum temperature yesterday: 69 °F (at 2:58 PM)
Minimum temperature yesterday: 34 °F (at 4:58 AM)
Average temperature yesterday: 49 °F

High & Low Weather Summary for the Past Weeks

 TemperatureHumidityPressure
High74 °F (Feb 10, 3:58 PM)100% (Feb 1, 2:58 AM)30.51 "Hg (Feb 1, 2:58 AM)
Low14 °F (Feb 4, 5:58 AM)7% (Feb 10, 3:58 PM)29.40 "Hg (Feb 1, 11:56 AM)
Average42 °F45%30.08 "Hg
* Reported Jan 29 7:58 AM — Feb 13 7:58 AM, Clovis, Weather by CustomWeather, © 2016

Note: Actual official high and low records may vary slightly from our data, if they occured in-between our weather recording intervals... More about our weather records

Advertising

Clovis Weather History for the Previous 24 Hours

 ConditionsComfort  
Time TempWeatherWind HumidityBarometerVisibility
7:58 AM
Sat, Feb 13
38 °FSunny.6 mph83%30.26 "Hg10 mi
6:58 AM33 °FSunny.3 mph94%30.29 "Hg10 mi
5:58 AM33 °FClear.1 mph95%30.27 "Hg10 mi
4:58 AM33 °FClear.2 mph82%30.24 "Hg10 mi
3:58 AM36 °FClear.2 mph75%30.23 "Hg10 mi
2:58 AM36 °FClear.2 mph68%30.24 "Hg10 mi
1:58 AM36 °FClear.2 mph67%30.26 "Hg10 mi
12:58 AM37 °FClear.5 mph62%30.27 "Hg10 mi
11:58 PM
Fri, Feb 12
38 °FClear.5 mph59%30.28 "Hg10 mi
10:58 PM38 °FClear.3 mph56%30.28 "Hg10 mi
9:58 PM41 °FClear.6 mph50%30.28 "Hg10 mi
8:58 PM44 °FClear.6 mph46%30.27 "Hg10 mi
7:58 PM49 °FClear.10 mph39%30.28 "Hg10 mi
6:58 PM49 °FClear.8 mph39%30.28 "Hg10 mi
5:58 PM55 °FClear.8 mph29%30.24 "Hg10 mi
4:58 PM65 °FSunny.9 mph19%30.22 "Hg10 mi
3:58 PM69 °FSunny.12 mph14%30.19 "Hg10 mi
2:58 PM69 °FSunny.14 mph13%30.17 "Hg10 mi
1:58 PM67 °FSunny.12 mph20%30.19 "Hg10 mi
12:58 PM64 °FSunny.15 mph23%30.22 "Hg10 mi
11:58 AM63 °FSunny.10 mph24%30.25 "Hg10 mi
10:58 AM60 °FSunny.15 mph26%30.27 "Hg10 mi
9:58 AM56 °FSunny.16 mph30%30.27 "Hg10 mi
8:58 AM49 °FSunny.18 mph40%30.25 "Hg10 mi
Weather by CustomWeather, © 2016

See weather overviewHow to use our weather pages